Location: Buckeye Ditch
(40.9104°N, 122.9517°W)
Time: 19:56:12
(UTC+00:00)

Vanguard 1 - Pass Details

Date: 28 May 2025
Orbit: 649 x 3822 km, 34.3° (Epoch: 15 June)

Event Time Altitude Azimuth Distance (km) Brightness Sun altitude
Rises 04:29:44 0° 280° (W) 6,993 15.6 -9.5°
Reaches altitude 10° 04:35:23 10° 274° (W) 5,483 14.7 -10.3°
Maximum altitude 04:48:22 40° 213° (SSW) 2,425 12.0 -12.1°
Enters shadow 04:54:51 15° 151° (SSE) 2,929 11.9 -13.0°
